Weather History for Cambridge, MD

Change the Weather History Date:

Tuesday, February 5, 2013

  Actual Average (KESN) Record (KESN)
Temperature  
Mean Temperature 38 °F -  
Max Temperature 44 °F 42 °F 64 °F (1962)
Min Temperature 32 °F 24 °F 11 °F (1965)
Degree Days  
Heating Degree Days 27    
Moisture  
Dew Point 32 °F    
Average Humidity 76    
Maximum Humidity 100    
Minimum Humidity 57    
Precipitation  
Precipitation 0.00 in - - ()
Sea Level Pressure  
Sea Level Pressure 29.89 in    
Wind  
Wind Speed 3 mph (SSW)    
Max Wind Speed 8 mph    
Max Gust Speed -    
Visibility 10 miles    
Events      
Averages and records for this station are not official NWS values.
T = Trace of Precipitation, MM = Missing Value Source: NWS Daily Summary

Daily Weather History Graph

Daily Weather History Graph

Search for Another Location

Airport:

Trip Planner

Search our weather history database for the weather conditions in past years. The results will help you decide how hot, cold, wet, or windy it might be!

Date:

Astronomy

Feb. 05, 2013 Rise Set
Actual Time 7:05 AM EST 5:31 PM EST
Civil Twilight 6:37 AM EST 5:58 PM EST
Nautical Twilight 6:06 AM EST 6:30 PM EST
Astronomical Twilight 5:35 AM EST 7:01 PM EST
Moon 2:43 AM EST (2/5) 12:47 PM EST (2/5)
Length of Visible Light 11h 20m
Length of Day
10h 25m
Waning Crescent, 27% of the Moon is Illuminated
Feb 5
Waning Crescent
Feb 10
New
Feb 17
First Quarter
Feb 25
Full
Mar 4
Last Quarter

Hourly Weather History & Observations

Time (EST) Temp. Windchill Dew Point Humidity Pressure Visibility Wind Dir Wind Speed Gust Speed Precip Events Conditions
12:08 AM 37.4 °F 33.8 °F 32.0 °F 81% 29.92 in 10.0 mi South 4.6 mph - N/A   Mostly Cloudy
12:51 AM 41.0 °F 35.8 °F 32.0 °F 70% 29.91 in 10.0 mi South 8.1 mph - N/A   Overcast
1:12 AM 41.0 °F 36.4 °F 32.0 °F 70% 29.90 in 10.0 mi South 6.9 mph - N/A   Overcast
1:33 AM 41.0 °F 35.8 °F 32.0 °F 70% 29.90 in 10.0 mi South 8.1 mph - N/A   Scattered Clouds
1:55 AM 41.0 °F 37.1 °F 32.0 °F 70% 29.90 in 10.0 mi South 5.8 mph - N/A   Scattered Clouds
2:16 AM 41.0 °F 36.4 °F 32.0 °F 70% 29.89 in 10.0 mi South 6.9 mph - N/A   Mostly Cloudy
2:37 AM 41.0 °F 39.0 °F 32.0 °F 70% 29.89 in 10.0 mi SSW 3.5 mph - N/A   Overcast
2:59 AM 37.4 °F 34.9 °F 32.0 °F 81% 29.89 in 10.0 mi SSW 3.5 mph - N/A   Scattered Clouds
3:20 AM 39.2 °F 35.9 °F 32.0 °F 75% 29.88 in 10.0 mi South 4.6 mph - N/A   Mostly Cloudy
4:03 AM 37.4 °F 33.8 °F 30.2 °F 75% 29.88 in - SSW 4.6 mph - N/A   Scattered Clouds
4:24 AM 37.4 °F - 30.2 °F 75% 29.88 in - Calm Calm - N/A   Scattered Clouds
4:45 AM 35.6 °F 32.8 °F 32.0 °F 87% 29.87 in - SSE 3.5 mph - N/A   Scattered Clouds
6:11 AM 35.6 °F - 32.0 °F 87% 29.88 in - Calm Calm - N/A   Clear
6:32 AM 35.6 °F - 32.0 °F 87% 29.88 in - Calm Calm - N/A   Unknown
6:53 AM 35.6 °F - 32.0 °F 87% 29.89 in - Calm Calm - N/A   Unknown
7:15 AM 33.8 °F 30.8 °F 32.0 °F 93% 29.89 in - SSE 3.5 mph - N/A   Unknown
7:57 AM 35.6 °F - 32.0 °F 87% 29.90 in 10.0 mi Calm Calm - N/A   Clear
8:18 AM 35.6 °F - 32.0 °F 87% 29.91 in - Calm Calm - N/A   Unknown
8:40 AM 37.4 °F - 32.0 °F 81% 29.91 in 10.0 mi Calm Calm - N/A   Clear
9:01 AM 37.4 °F - 33.8 °F 87% 29.90 in 10.0 mi Calm Calm - N/A   Clear
9:22 AM 41.0 °F 39.0 °F 33.8 °F 76% 29.92 in 10.0 mi SSE 3.5 mph - N/A   Clear
9:43 AM 41.0 °F 39.0 °F 32.0 °F 70% 29.92 in 10.0 mi South 3.5 mph - N/A   Clear
10:05 AM 42.8 °F 40.1 °F 32.0 °F 66% 29.93 in 10.0 mi SW 4.6 mph - N/A   Clear
10:26 AM 44.6 °F 42.2 °F 32.0 °F 61% 29.92 in 10.0 mi WNW 4.6 mph - N/A   Clear
10:47 AM 44.6 °F 40.7 °F 32.0 °F 61% 29.92 in 10.0 mi West 6.9 mph - N/A   Clear
11:09 AM 42.8 °F 38.0 °F 30.2 °F 61% 29.92 in 10.0 mi North 8.1 mph - N/A   Clear
11:51 AM 44.6 °F 40.2 °F 32.0 °F 61% 29.91 in 10.0 mi WNW 8.1 mph - N/A   Clear
12:12 PM 44.6 °F 40.7 °F 30.2 °F 57% 29.90 in 10.0 mi NNW 6.9 mph - N/A   Clear
12:34 PM 42.8 °F 40.1 °F 30.2 °F 61% 29.89 in 10.0 mi NNW 4.6 mph - N/A   Clear
12:55 PM 42.8 °F - 30.2 °F 61% 29.88 in 10.0 mi Calm Calm - N/A   Scattered Clouds
1:16 PM 42.8 °F - 30.2 °F 61% 29.87 in 10.0 mi Calm Calm - N/A   Clear
1:59 PM 44.6 °F - 30.2 °F 57% 29.86 in 10.0 mi Calm Calm - N/A   Clear
2:20 PM 44.6 °F 43.1 °F 32.0 °F 61% 29.86 in 10.0 mi NNW 3.5 mph - N/A   Scattered Clouds
2:41 PM 42.8 °F 40.1 °F 32.0 °F 66% 29.86 in 10.0 mi NNW 4.6 mph - N/A   Scattered Clouds
3:03 PM 42.8 °F 40.1 °F 32.0 °F 66% 29.86 in 10.0 mi North 4.6 mph - N/A   Scattered Clouds
3:24 PM 42.8 °F 41.1 °F 32.0 °F 66% 29.85 in 10.0 mi NNE 3.5 mph - N/A   Scattered Clouds
3:45 PM 42.8 °F 41.1 °F 32.0 °F 66% 29.85 in 10.0 mi North 3.5 mph - N/A   Clear
4:06 PM 42.8 °F - 32.0 °F 66% 29.86 in 10.0 mi Calm Calm - N/A   Clear
4:28 PM 42.8 °F - 32.0 °F 66% 29.87 in 10.0 mi Calm Calm - N/A   Clear
4:49 PM 41.0 °F - 32.0 °F 70% 29.87 in 10.0 mi Calm Calm - N/A   Clear
5:10 PM 41.0 °F - 32.0 °F 70% 29.87 in 10.0 mi Calm Calm - N/A   Clear
5:31 PM 41.0 °F - 32.0 °F 70% 29.86 in 10.0 mi Calm Calm - N/A   Clear
5:53 PM 41.0 °F 39.0 °F 32.0 °F 70% 29.86 in 10.0 mi NNE 3.5 mph - N/A   Clear
6:14 PM 37.4 °F - 32.0 °F 81% 29.87 in 10.0 mi Calm Calm - N/A   Clear
6:35 PM 41.0 °F - 33.8 °F 76% 29.88 in 10.0 mi Calm Calm - N/A   Clear
6:57 PM 41.0 °F - 32.0 °F 70% 29.89 in 10.0 mi Calm Calm - N/A   Clear
7:18 PM 37.4 °F - 32.0 °F 81% 29.89 in 10.0 mi Calm Calm - N/A   Clear
7:39 PM 35.6 °F - 32.0 °F 87% 29.89 in 10.0 mi Calm Calm - N/A   Scattered Clouds
8:00 PM 35.6 °F 32.8 °F 32.0 °F 87% 29.89 in 10.0 mi ENE 3.5 mph - N/A   Clear
8:22 PM 37.4 °F 34.9 °F 32.0 °F 81% 29.89 in 10.0 mi East 3.5 mph - N/A   Clear
8:43 PM 35.6 °F - 32.0 °F 87% 29.89 in 10.0 mi Calm Calm - N/A   Clear
9:04 PM 35.6 °F - 32.0 °F 87% 29.89 in 10.0 mi Calm Calm - N/A   Clear
9:26 PM 35.6 °F - 32.0 °F 87% 29.89 in 10.0 mi Calm Calm - N/A   Clear
9:47 PM 33.8 °F - 32.0 °F 93% 29.90 in 10.0 mi Calm Calm - N/A   Clear
10:08 PM 32.0 °F - 30.2 °F 93% 29.90 in 10.0 mi Calm Calm - N/A   Clear
10:30 PM 32.0 °F - 32.0 °F 100% 29.91 in 10.0 mi Calm Calm - N/A   Clear
10:51 PM 32.0 °F - 32.0 °F 100% 29.91 in 10.0 mi Calm Calm - N/A   Clear
11:12 PM 32.0 °F 28.7 °F 32.0 °F 100% 29.92 in 10.0 mi North 3.5 mph - N/A   Clear
11:34 PM 32.0 °F - 30.2 °F 93% 29.92 in 7.0 mi Calm Calm - N/A   Scattered Clouds
11:55 PM 32.0 °F - 30.2 °F 93% 29.92 in 7.0 mi Calm Calm - N/A   Scattered Clouds